TimePST,TemperatureF,Dew PointF,Humidity,Sea Level PressureIn,VisibilityMPH,Wind Direction,Wind SpeedMPH,Gust SpeedMPH,PrecipitationIn,Events,Conditions,WindDirDegrees,DateUTC
12:35 AM,21.2,-4.0,33,30.44,10.0,SSE,3.5,-,N/A,,Clear,150,2011-12-23 08:35:00
12:55 AM,21.2,-4.0,33,30.44,10.0,ESE,5.8,-,N/A,,Clear,120,2011-12-23 08:55:00
1:15 AM,19.4,-2.2,39,30.43,10.0,ESE,4.6,-,N/A,,Clear,120,2011-12-23 09:15:00
1:35 AM,23.0,-2.2,33,30.43,10.0,East,12.7,-,N/A,,Clear,100,2011-12-23 09:35:00
1:55 AM,32.0,-9.4,17,30.43,10.0,ESE,10.4,-,N/A,,Clear,110,2011-12-23 09:55:00
2:15 AM,23.0,-4.0,31,30.44,10.0,ESE,9.2,-,N/A,,Clear,120,2011-12-23 10:15:00
2:55 AM,32.0,-11.2,15,30.45,10.0,ESE,10.4,-,N/A,,Clear,110,2011-12-23 10:55:00
3:15 AM,28.4,-7.6,21,30.45,10.0,East,12.7,-,N/A,,Clear,90,2011-12-23 11:15:00
3:35 AM,33.8,-11.2,14,30.45,10.0,East,12.7,-,N/A,,Clear,100,2011-12-23 11:35:00
4:15 AM,23.0,-4.0,31,30.45,10.0,ESE,4.6,-,N/A,,Clear,120,2011-12-23 12:15:00
4:35 AM,24.8,-7.6,24,30.45,10.0,ESE,8.1,-,N/A,,Clear,110,2011-12-23 12:35:00
5:15 AM,23.0,-4.0,31,30.46,10.0,ESE,8.1,-,N/A,,Clear,120,2011-12-23 13:15:00
5:35 AM,21.2,-4.0,33,30.47,10.0,East,4.6,-,N/A,,Clear,100,2011-12-23 13:35:00
5:55 AM,19.4,-4.0,36,30.48,10.0,SE,3.5,-,N/A,,Clear,130,2011-12-23 13:55:00
6:15 AM,19.4,-4.0,36,30.49,10.0,SSE,5.8,-,N/A,,Clear,150,2011-12-23 14:15:00
6:55 AM,17.6,-2.2,42,30.51,9.0,ENE,4.6,-,N/A,,Clear,60,2011-12-23 14:55:00
7:15 AM,17.6,-2.2,42,30.51,9.0,SE,4.6,-,N/A,,Clear,140,2011-12-23 15:15:00
7:35 AM,21.2,-0.4,39,30.51,8.0,Calm,Calm,-,N/A,,Clear,0,2011-12-23 15:35:00
7:55 AM,24.8,-0.4,34,30.51,7.0,Calm,Calm,-,N/A,,Clear,0,2011-12-23 15:55:00
8:35 AM,32.0,-0.4,25,30.52,8.0,SE,3.5,-,N/A,,Clear,130,2011-12-23 16:35:00
9:15 AM,41.0,-5.8,14,30.53,8.0,ESE,6.9,-,N/A,,Clear,110,2011-12-23 17:15:00
9:35 AM,44.6,-7.6,11,30.53,8.0,SE,8.1,-,N/A,,Clear,130,2011-12-23 17:35:00
10:15 AM,48.2,-4.0,11,30.52,5.0,ESE,8.1,-,N/A,,Haze,110,2011-12-23 18:15:00
10:35 AM,51.8,-7.6,8,30.52,5.0,East,10.4,-,N/A,,Haze,100,2011-12-23 18:35:00
10:55 AM,53.6,-7.6,8,30.51,5.0,SE,11.5,-,N/A,,Haze,130,2011-12-23 18:55:00
11:15 AM,53.6,-7.6,8,30.50,7.0,SE,11.5,16.1,N/A,,Clear,140,2011-12-23 19:15:00
11:35 AM,53.6,-7.6,8,30.49,7.0,ESE,10.4,18.4,N/A,,Clear,120,2011-12-23 19:35:00
11:55 AM,53.6,-7.6,8,30.48,8.0,SE,10.4,-,N/A,,Clear,130,2011-12-23 19:55:00
12:15 PM,53.6,-7.6,8,30.46,9.0,SE,10.4,18.4,N/A,,Clear,130,2011-12-23 20:15:00
12:35 PM,55.4,-5.8,8,30.46,7.0,SE,11.5,17.3,N/A,,Clear,130,2011-12-23 20:35:00
12:55 PM,55.4,-7.6,7,30.45,7.0,SE,12.7,18.4,N/A,,Clear,130,2011-12-23 20:55:00
1:15 PM,55.4,-7.6,7,30.45,9.0,SE,11.5,17.3,N/A,,Clear,140,2011-12-23 21:15:00
1:35 PM,55.4,-7.6,7,30.45,9.0,SE,10.4,-,N/A,,Clear,140,2011-12-23 21:35:00
1:55 PM,55.4,-7.6,7,30.44,9.0,SE,12.7,18.4,N/A,,Clear,130,2011-12-23 21:55:00
2:35 PM,53.6,-4.0,9,30.44,9.0,SE,8.1,-,N/A,,Clear,140,2011-12-23 22:35:00
3:15 PM,48.2,12.2,24,30.45,7.0,NNW,9.2,-,N/A,,Clear,330,2011-12-23 23:15:00
3:35 PM,48.2,14.0,25,30.46,7.0,NNW,9.2,-,N/A,,Clear,330,2011-12-23 23:35:00
3:55 PM,46.4,15.8,29,30.46,7.0,NW,11.5,-,N/A,,Clear,320,2011-12-23 23:55:00
4:15 PM,44.6,10.4,25,30.46,7.0,NW,10.4,-,N/A,,Clear,320,2011-12-24 00:15:00
4:35 PM,41.0,15.8,36,30.47,6.0,NW,5.8,-,N/A,,Haze,310,2011-12-24 00:35:00
4:55 PM,41.0,14.0,33,30.47,6.0,WSW,4.6,-,N/A,,Haze,240,2011-12-24 00:55:00
5:15 PM,39.2,14.0,36,30.47,8.0,WNW,4.6,-,N/A,,Clear,300,2011-12-24 01:15:00
5:35 PM,39.2,15.8,39,30.47,8.0,Calm,Calm,-,N/A,,Clear,0,2011-12-24 01:35:00
5:55 PM,37.4,15.8,41,30.47,7.0,Calm,Calm,-,N/A,,Clear,0,2011-12-24 01:55:00
6:15 PM,32.0,12.2,44,30.48,8.0,ESE,5.8,-,N/A,,Clear,120,2011-12-24 02:15:00
6:35 PM,30.2,14.0,51,30.48,8.0,Calm,Calm,-,N/A,,Clear,0,2011-12-24 02:35:00
6:55 PM,32.0,10.4,41,30.48,8.0,Calm,Calm,-,N/A,,Clear,0,2011-12-24 02:55:00
7:15 PM,28.4,10.4,47,30.48,8.0,ESE,4.6,-,N/A,,Clear,120,2011-12-24 03:15:00
7:35 PM,26.6,6.8,43,30.49,10.0,Calm,Calm,-,N/A,,Clear,0,2011-12-24 03:35:00
7:55 PM,24.8,10.4,54,30.48,9.0,Calm,Calm,-,N/A,,Clear,0,2011-12-24 03:55:00
8:15 PM,26.6,6.8,43,30.49,10.0,East,3.5,-,N/A,,Clear,90,2011-12-24 04:15:00
8:55 PM,26.6,6.8,43,30.49,10.0,ENE,3.5,-,N/A,,Clear,60,2011-12-24 04:55:00
9:15 PM,24.8,6.8,46,30.49,9.0,Calm,Calm,-,N/A,,Clear,0,2011-12-24 05:15:00
9:55 PM,23.0,6.8,50,30.49,10.0,ESE,5.8,-,N/A,,Clear,120,2011-12-24 05:55:00
10:15 PM,23.0,6.8,50,30.49,10.0,Calm,Calm,-,N/A,,Clear,0,2011-12-24 06:15:00
10:35 PM,23.0,8.6,54,30.49,10.0,Calm,Calm,-,N/A,,Clear,0,2011-12-24 06:35:00
10:55 PM,23.0,6.8,50,30.49,10.0,Calm,Calm,-,N/A,,Clear,0,2011-12-24 06:55:00
11:35 PM,23.0,6.8,50,30.48,10.0,Calm,Calm,-,N/A,,Clear,0,2011-12-24 07:35:00
11:55 PM,23.0,6.8,50,30.47,10.0,Calm,Calm,-,N/A,,Clear,0,2011-12-24 07:55:00